Location: Barcelona
(41.3830°N, 2.1830°E)
Time: 01:49:21
(UTC+02:00)

ISS - Pass Details

Date: 14 July 2019
Orbit: 409 x 418 km, 51.6° (Epoch: 23 July)

Event Time Altitude Azimuth Distance (km) Brightness Sun altitude
Rises 04:44:41 0° 309° (NW) 2,345 0.0 -15.9°
Reaches altitude 10° 04:47:14 10° 329° (NNW) 1,480 -0.8 -15.6°
Maximum altitude 04:49:38 18° 15° (NNE) 1,072 -0.8 -15.3°
Drops below altitude 10° 04:52:03 10° 62° (ENE) 1,476 0.2 -15.0°
Sets 04:54:34 0° 82° (E) 2,334 0.9 -14.7°
